Dewpoint
13 13 13 13 14 14 14 15 14 14 14 14 13 12 12 11 11 11 11 12 12 12 12 12 13 13 13 13 13 14 14 13 12 12 11 10 10 11 12 13 14 14
14 14 13 14 14 14 14 14 14 13 13 13 13 13 13 13 12 12 12 12 12 12 12 12 12 12 12 12 13 13 14 14 14 13 12 11 10 11 12 13 13 14
13 14 14 14 14 14 14 14 13 13 13 13 13 13 13 13 13 14 14 14 14 14 13 11 12 12 12 12 12 12 13 14 13 12 12 12 11 10 11 12 13 14
12 13 13 13 14 13 13 13 12 13 13 13 13 13 13 13 14 14 15 15 15 14 14 12 11 12 12 12 11 12 12 12 12 12 12 12 12 11 11 12 14 14
12 12 13 13 13 13 13 12 13 13 13 13 13 14 13 14 14 15 15 15 15 15 14 12 11 11 12 12 11 11 12 12 12 11 11 12 12 12 12 12 14 15
12 12 12 13 13 13 13 13 14 14 13 13 14 14 14 15 15 15 15 15 15 14 13 12 11 11 12 12 12 12 12 12 12 12 11 12 12 13 13 13 14 15
12 12 12 13 13 13 13 14 14 14 14 15 15 15 15 16 15 15 15 15 15 14 13 12 12 12 12 12 12 12 12 12 12 12 11 12 12 13 13 13 14 15
12 12 13 13 13 13 14 14 14 14 15 15 15 14 15 15 15 15 15 15 15 15 14 13 13 14 14 13 13 13 13 12 12 12 12 12 12 13 13 13 14 15
13 13 13 14 14 15 15 15 15 15 15 15 14 15 15 15 15 16 16 15 15 15 15 13 13 15 15 15 14 14 13 13 13 13 13 13 13 13 13 13 13 14
13 13 13 14 14 15 15 16 16 15 15 15 14 15 15 15 15 16 16 16 15 15 15 15 14 15 16 16 16 15 14 14 14 14 13 13 13 13 13 13 12 13
14 15 15 13 13 14 15 16 16 16 15 15 15 15 15 15 16 16 16 16 15 15 16 15 15 16 16 16 16 16 15 15 15 14 13 13 14 14 14 14 13 12
16 16 16 15 14 14 14 15 16 15 15 15 15 15 15 15 16 16 15 15 15 15 16 15 15 16 16 16 16 16 15 15 15 15 14 14 14 15 15 15 14 14
16 15 15 16 16 14 14 15 15 15 15 15 15 15 15 15 15 15 15 15 15 15 15 15 15 15 16 16 16 15 15 15 16 16 16 16 15 15 15 16 16 16
16 15 14 16 17 16 15 15 16 15 15 15 14 14 14 14 14 15 15 15 15 15 15 15 15 15 15 15 15 15 15 15 16 16 17 17 16 16 16 17 17 17
16 15 15 16 16 16 16 16 16 15 15 15 14 14 14 14 14 14 15 15 15 15 15 15 15 15 15 15 15 15 14 14 15 16 16 17 17 17 17 17 16 17
15 15 15 16 16 16 15 15 15 15 15 14 14 14 14 14 14 15 15 15 15 15 15 15 15 15 15 15 15 15 15 14 15 16 16 17 16 17 17 17 16 16
15 15 15 15 16 16 15 15 15 14 14 14 14 13 13 13 13 14 14 14 15 15 15 15 15 15 15 16 15 15 15 15 16 16 16 15 15 16 17 17 16 16
16 15 15 15 16 16 15 15 15 14 14 14 14 13 13 13 13 13 13 14 14 14 14 15 15 15 15 15 15 16 16 16 16 16 16 15 15 16 16 16 16 16
17 16 16 17 17 16 15 15 15 14 14 14 14 14 14 13 13 13 13 13 13 14 14 14 14 15 14 15 15 16 16 16 16 15 15 16 15 15 15 15 16 16
17 17 17 17 17 17 17 16 15 15 15 14 14 14 14 14 14 14 14 14 14 14 14 14 14 14 14 15 15 15 16 16 16 15 15 16 15 15 15 15 16 16
15 16 16 16 17 17 16 16 15 15 15 15 15 15 15 15 14 14 14 14 14 14 14 14 14 14 14 14 14 14 14 15 15 15 15 15 15 15 15 15 15 15
15 15 16 16 17 17 17 17 16 16 15 14 15 15 15 15 15 15 15 14 14 14 14 14 14 15 15 14 14 14 14 14 15 15 15 15 15 15 15 15 15 15
15 15 15 15 16 16 17 17 17 16 16 15 15 15 15 15 15 15 15 14 14 14 14 14 14 15 16 15 15 15 14 14 14 14 15 15 15 15 16 15 15 14
16 16 16 15 14 14 15 15 15 15 15 16 16 16 15 15 16 16 16 15 14 14 15 15 16 16 16 15 15 14 14 13 13 13 14 15 15 15 16 15 15 15
16 16 16 16 16 15 15 15 15 15 16 16 16 16 16 16 16 16 16 15 15 15 15 16 17 16 16 15 14 14 14 13 13 14 14 15 15 16 16 15 15 15
15 15 15 15 16 16 16 16 16 16 16 16 16 16 16 16 16 16 16 16 16 16 16 16 17 17 16 15 15 15 16 15 15 15 15 15 15 15 16 16 16 16
Wind_Speed
21 20 20 19 19 18 17 17 16 15 14 13 13 12 11 11 12 12 11 11 11 10 10 9 8 8 8 7 7 7 7 6 5 6 7 9 9 10 10 9 7 6
21 19 19 19 18 18 17 17 16 15 13 14 13 12 11 10 12 12 10 11 11 10 10 9 9 9 8 8 8 8 8 7 6 6 6 7 8 9 9 9 8 7
21 19 20 19 18 18 17 16 16 15 15 15 15 14 13 11 11 12 10 10 11 10 10 10 10 10 9 9 9 9 9 9 7 7 6 6 7 8 8 8 8 8
20 18 19 19 18 17 17 16 16 16 16 17 16 15 14 13 12 12 11 11 10 10 10 10 10 11 10 10 9 9 9 9 9 8 7 6 7 7 7 7 7 8
18 18 18 18 17 17 17 18 17 17 17 17 16 15 13 13 13 12 12 12 11 11 10 9 11 11 11 10 10 10 10 10 10 10 8 8 8 8 8 8 8 9
19 18 18 18 17 18 18 17 16 16 16 16 15 14 13 12 12 11 12 13 12 12 10 9 10 11 11 10 10 10 11 11 11 11 10 9 9 9 9 9 10 10
20 19 19 18 17 18 17 16 15 15 15 15 15 14 13 13 12 11 12 12 12 12 10 10 9 9 10 10 10 10 11 11 11 11 11 10 9 10 10 10 11 12
20 19 19 18 18 18 17 15 15 15 14 14 14 13 13 13 12 11 11 11 11 11 11 11 10 9 9 10 10 10 10 11 11 11 10 9 9 10 10 10 11 13
20 19 19 19 18 18 17 15 14 15 14 14 14 13 13 13 12 11 11 10 10 11 11 11 11 10 9 9 8 9 9 10 10 10 10 9 9 10 10 10 11 12
20 19 19 19 19 19 18 16 14 14 14 14 13 13 12 12 12 11 11 11 11 11 10 10 10 10 9 8 8 8 8 9 9 10 10 10 10 10 9 10 11 11
21 19 18 19 20 20 18 16 14 14 14 13 13 12 12 11 11 11 11 11 11 11 11 10 9 9 9 9 9 9 9 9 10 10 10 9 9 10 9 9 10 11
23 20 19 18 18 19 18 16 14 13 13 13 13 12 11 11 11 10 10 10 11 11 11 10 9 9 9 10 10 10 9 10 10 10 9 8 8 10 9 8 9 9
24 22 20 18 15 15 16 16 14 13 13 13 13 12 11 11 10 10 9 9 9 10 10 10 10 10 10 11 11 10 10 10 10 10 9 8 8 8 8 8 9 9
25 21 19 19 17 14 15 16 16 16 15 14 13 14 13 11 11 11 10 10 9 9 9 10 10 11 11 11 11 11 11 11 12 11 10 8 8 8 7 8 9 10
26 22 20 21 21 18 18 19 21 20 19 17 16 16 16 15 14 13 12 12 12 11 10 10 11 11 10 11 12 12 12 12 12 12 12 11 10 10 10 11 10 10
25 23 22 23 22 21 21 20 21 22 20 19 19 18 18 18 17 16 15 15 15 14 13 13 13 12 12 12 13 14 13 13 12 14 16 15 13 12 12 12 11 11
24 23 24 24 23 22 23 22 21 22 21 18 19 19 19 18 18 19 18 18 18 17 16 17 16 15 13 13 13 14 14 13 13 16 18 17 15 14 13 13 11 10
24 25 26 25 24 24 25 25 24 24 23 20 19 19 19 18 18 19 20 20 19 19 19 19 18 16 14 13 13 13 14 14 14 16 16 16 17 16 14 12 11 11
22 25 27 26 26 26 28 28 26 25 24 23 21 20 20 20 19 20 20 20 20 20 21 21 20 18 16 14 14 14 15 16 15 15 15 16 18 16 14 12 10 11
21 22 24 24 24 24 25 27 27 25 24 24 23 22 22 22 21 21 21 20 20 20 21 21 20 18 17 17 16 16 16 16 15 15 15 16 18 16 14 13 10 9
23 23 25 26 26 25 25 26 28 28 26 25 25 25 24 23 23 22 21 20 20 21 21 21 20 19 18 18 17 16 16 15 16 16 16 17 18 16 15 14 12 11
25 25 26 27 26 26 27 27 27 27 27 27 27 27 27 27 25 23 22 21 21 21 21 21 21 20 20 19 18 17 16 15 16 17 18 19 19 18 17 15 13 12
24 25 26 27 26 26 27 26 23 23 25 26 27 28 28 27 26 24 23 22 21 21 21 21 22 21 21 21 19 18 17 16 16 16 18 19 20 21 20 18 16 14
20 20 21 24 27 28 28 28 26 26 27 27 27 28 27 25 25 24 23 23 23 22 21 22 22 22 22 22 20 20 19 18 17 17 17 18 20 21 21 20 18 16
17 15 14 18 23 25 25 26 26 27 27 27 28 28 26 24 24 24 23 24 26 27 26 24 23 23 24 23 22 21 20 20 19 19 18 18 19 20 20 19 17 15
9 8 7 10 15 18 19 21 22 23 24 24 24 24 24 23 24 23 22 23 24 26 27 26 24 23 24 24 23 22 21 20 20 19 19 19 19 19 18 17 17 16
Wind_Direction
207 205 206 209 209 210 209 206 208 208 206 208 210 210 210 208 208 206 202 204 205 203 210 217 218 216 214 214 215 215 218 215 208 212 215 213 215 217 215 211 209 201
205 206 205 207 208 208 208 209 210 210 210 213 214 212 211 211 208 203 198 200 203 207 211 215 220 222 220 218 215 217 223 219 214 220 222 218 217 218 219 218 217 213
205 205 204 203 204 205 205 206 208 208 211 213 212 211 210 210 210 206 202 201 203 211 218 218 219 222 227 228 223 221 224 225 225 227 227 224 222 223 227 226 225 223
204 204 202 201 201 203 204 206 207 208 210 210 208 208 207 207 211 210 211 212 211 215 223 222 219 221 225 231 232 230 229 231 232 231 227 224 225 231 236 232 227 229
203 202 202 201 201 202 206 208 206 206 208 207 203 204 204 205 208 210 216 221 222 223 225 224 221 220 222 226 230 230 229 230 232 233 234 231 233 234 235 234 231 232
202 202 202 202 202 203 205 205 203 204 207 206 203 202 202 203 207 213 222 227 228 230 229 226 221 218 219 222 223 224 226 227 230 235 237 237 240 238 233 233 232 233
201 201 202 202 204 206 205 202 202 204 206 206 208 206 204 207 212 217 222 225 228 230 230 228 223 219 220 221 221 222 223 224 228 235 238 240 244 244 239 235 232 235
201 200 201 203 204 204 202 200 203 206 207 208 210 211 210 213 218 218 217 217 221 225 227 225 222 220 221 222 221 223 226 229 232 237 240 241 241 241 240 238 237 241
202 202 203 204 203 202 200 198 202 206 208 210 210 210 213 215 218 220 217 213 215 220 224 225 222 217 218 223 224 225 229 232 236 241 241 242 242 237 235 238 241 245
204 204 206 207 205 203 202 199 200 203 206 209 210 209 212 213 214 218 218 216 216 218 221 221 216 211 215 227 235 236 234 232 236 241 242 243 243 236 233 239 242 244
204 203 208 212 210 206 206 203 199 201 204 206 208 209 211 212 211 215 220 221 219 218 219 221 218 215 221 234 244 246 243 238 237 238 240 241 239 233 236 245 247 244
202 204 208 211 212 212 209 204 201 204 207 207 207 208 211 214 215 220 225 226 225 223 222 226 229 229 231 237 243 245 244 240 237 235 239 245 243 238 240 247 249 243
205 208 207 204 210 215 208 203 205 210 213 214 214 214 215 216 219 224 227 224 226 230 231 233 235 235 237 240 242 243 244 241 235 233 239 249 249 245 244 250 252 245
212 209 205 201 206 216 215 214 219 221 222 224 224 223 222 222 223 225 226 225 227 233 238 239 240 238 237 240 242 244 245 241 234 233 238 246 248 245 243 247 251 244
215 208 205 205 206 213 219 222 226 229 231 231 231 231 228 227 229 228 226 226 228 231 234 239 245 246 244 244 243 242 243 241 238 239 241 243 243 241 240 242 243 243
210 205 208 210 208 212 220 223 225 229 231 231 231 233 231 227 229 230 228 226 225 225 226 231 239 242 243 246 245 242 243 242 243 246 246 245 244 242 245 249 249 248
206 204 208 208 207 212 219 222 223 224 226 227 227 230 231 229 230 233 233 232 230 228 227 228 232 235 237 243 245 244 244 243 243 246 249 250 247 244 244 249 254 257
209 210 210 207 206 211 217 220 220 220 222 225 226 229 232 233 233 235 237 238 238 237 235 232 230 231 234 239 242 243 242 241 240 243 249 251 248 246 243 245 254 260
209 211 211 211 211 213 214 216 217 219 222 225 228 230 232 233 233 233 236 239 240 240 239 236 232 232 235 237 237 237 239 242 241 239 242 246 247 248 248 246 251 257
219 219 219 221 223 221 219 219 220 222 223 225 229 231 232 234 234 234 235 237 240 240 239 239 237 236 237 236 234 234 237 241 242 237 236 241 245 248 248 241 240 249
228 230 229 229 230 230 230 229 228 228 228 230 233 235 236 236 236 235 234 235 238 239 239 240 239 236 234 233 233 234 236 237 237 234 232 235 240 243 243 238 235 244
227 232 234 232 230 229 230 229 227 229 231 233 236 239 241 240 239 237 235 233 233 234 236 238 237 235 235 236 235 237 239 237 234 232 232 234 239 242 243 239 236 240
231 235 238 239 236 234 235 236 232 232 235 237 239 242 243 243 242 239 235 233 233 233 235 238 237 237 239 241 239 237 237 236 237 237 235 235 239 242 243 242 242 243
230 236 241 240 238 238 240 242 240 238 240 241 241 243 244 243 242 238 235 235 236 235 235 235 235 236 236 237 239 240 242 243 243 244 242 238 238 241 242 243 244 245
231 243 247 237 233 234 236 237 236 236 238 241 243 244 243 241 241 241 239 240 239 236 233 231 230 232 233 236 240 243 246 247 244 243 243 241 239 240 241 242 244 246
238 246 244 227 227 231 232 233 234 235 236 238 240 241 242 241 243 244 244 243 241 238 236 234 230 230 232 237 240 240 240 241 241 240 242 244 243 242 241 241 243 247
Height
1582 1583 1584 1585 1586 1587 1588 1589 1589 1590 1591 1592 1592 1593 1594 1595 1595 1596 1597 1598 1598 1599 1599 1600 1600 1601 1602 1602 1603 1603 1603 1604 1604 1605 1605 1605 1605 1606 1606 1606 1607 1607
1581 1582 1583 1584 1585 1586 1587 1588 1589 1589 1590 1591 1592 1592 1593 1594 1594 1595 1596 1597 1597 1598 1599 1599 1600 1600 1601 1601 1602 1602 1603 1603 1604 1604 1604 1605 1605 1605 1606 1606 1607 1607
1580 1581 1582 1583 1584 1585 1586 1587 1588 1588 1589 1590 1591 1592 1592 1593 1593 1594 1595 1596 1596 1597 1598 1598 1599 1600 1600 1601 1601 1602 1602 1603 1603 1603 1604 1604 1605 1605 1606 1606 1606 1607
1579 1580 1581 1582 1583 1584 1585 1586 1587 1587 1588 1589 1590 1591 1591 1592 1593 1593 1594 1595 1595 1596 1597 1597 1598 1598 1599 1600 1600 1601 1601 1602 1602 1603 1603 1603 1604 1605 1605 1606 1606 1606
1578 1579 1580 1582 1582 1583 1584 1585 1586 1586 1587 1588 1589 1590 1590 1591 1592 1592 1593 1594 1594 1595 1596 1596 1597 1597 1598 1599 1599 1600 1600 1601 1601 1602 1602 1603 1603 1604 1604 1605 1605 1605
1577 1578 1580 1581 1581 1582 1583 1584 1585 1585 1586 1588 1588 1589 1589 1590 1591 1591 1592 1593 1594 1594 1595 1595 1596 1597 1597 1598 1598 1599 1600 1600 1601 1601 1602 1602 1603 1603 1604 1604 1604 1604
1576 1577 1578 1580 1580 1581 1582 1583 1584 1585 1586 1587 1587 1588 1589 1589 1590 1591 1591 1592 1593 1593 1594 1595 1595 1596 1596 1597 1598 1598 1599 1599 1600 1600 1601 1601 1602 1602 1603 1603 1603 1603
1575 1576 1577 1579 1579 1580 1581 1582 1583 1584 1585 1586 1586 1587 1588 1589 1589 1590 1591 1591 1592 1593 1593 1594 1594 1595 1596 1596 1597 1597 1598 1598 1599 1599 1600 1600 1601 1601 1602 1602 1602 1603
1573 1575 1576 1577 1578 1579 1580 1581 1582 1583 1584 1585 1585 1586 1587 1588 1589 1589 1590 1590 1591 1592 1592 1593 1593 1594 1595 1596 1596 1597 1597 1598 1598 1598 1599 1599 1599 1600 1601 1601 1601 1602
1572 1573 1575 1576 1577 1578 1579 1580 1581 1582 1583 1584 1585 1585 1586 1587 1588 1588 1589 1590 1590 1591 1591 1592 1593 1593 1594 1595 1595 1596 1596 1597 1597 1597 1598 1598 1598 1599 1599 1600 1600 1600
1571 1573 1574 1575 1576 1577 1578 1580 1580 1581 1582 1583 1583 1584 1585 1586 1587 1588 1588 1588 1589 1590 1590 1591 1592 1592 1593 1594 1594 1595 1595 1596 1596 1596 1597 1597 1597 1598 1598 1598 1599 1599
1569 1572 1574 1575 1576 1577 1577 1579 1580 1580 1581 1582 1582 1583 1584 1585 1585 1586 1587 1587 1588 1589 1589 1590 1590 1591 1592 1593 1594 1594 1594 1595 1595 1595 1596 1596 1596 1597 1597 1597 1598 1598
1568 1570 1572 1573 1575 1576 1577 1578 1578 1579 1580 1581 1581 1582 1583 1584 1584 1585 1585 1586 1587 1587 1588 1588 1589 1590 1591 1591 1592 1593 1593 1594 1594 1594 1595 1595 1595 1596 1596 1596 1597 1597
1568 1569 1570 1572 1573 1574 1575 1576 1577 1578 1578 1579 1580 1581 1581 1582 1583 1583 1584 1585 1586 1586 1587 1587 1588 1588 1589 1590 1590 1591 1592 1593 1593 1593 1594 1594 1594 1595 1595 1595 1595 1596
1568 1568 1569 1570 1571 1572 1574 1574 1575 1576 1576 1577 1578 1579 1580 1580 1581 1582 1582 1583 1584 1585 1586 1586 1587 1587 1587 1588 1589 1590 1590 1591 1591 1592 1592 1592 1593 1593 1593 1594 1594 1595
1566 1567 1568 1569 1569 1570 1572 1573 1573 1574 1574 1575 1576 1577 1578 1578 1579 1580 1581 1582 1583 1583 1584 1584 1585 1586 1586 1587 1587 1588 1588 1589 1590 1590 1589 1590 1590 1590 1591 1592 1592 1593
1563 1564 1565 1566 1567 1568 1569 1571 1572 1572 1572 1573 1574 1575 1575 1576 1577 1578 1579 1580 1581 1582 1582 1583 1583 1584 1584 1585 1586 1586 1587 1587 1588 1587 1587 1589 1590 1589 1590 1590 1590 1591
1562 1562 1563 1564 1565 1566 1567 1568 1569 1570 1571 1571 1572 1573 1573 1574 1575 1576 1577 1578 1579 1580 1581 1581 1582 1582 1583 1583 1584 1584 1585 1585 1585 1586 1586 1588 1588 1588 1589 1588 1588 1589
1559 1560 1560 1561 1561 1562 1563 1565 1566 1567 1568 1569 1570 1571 1571 1572 1573 1574 1575 1576 1577 1578 1579 1580 1580 1581 1581 1581 1582 1582 1582 1583 1583 1584 1585 1585 1585 1586 1587 1587 1587 1588
1559 1558 1559 1560 1560 1559 1560 1561 1563 1565 1566 1567 1568 1568 1569 1570 1571 1572 1573 1574 1575 1576 1577 1577 1578 1579 1579 1579 1580 1580 1580 1580 1581 1582 1583 1583 1583 1584 1585 1585 1585 1586
1558 1559 1559 1560 1559 1559 1559 1560 1561 1562 1564 1565 1566 1566 1567 1568 1569 1570 1571 1572 1573 1574 1574 1575 1576 1577 1577 1577 1578 1578 1578 1579 1579 1580 1581 1581 1581 1581 1582 1583 1584 1584
1555 1556 1557 1556 1556 1557 1557 1557 1559 1560 1562 1563 1564 1564 1565 1566 1567 1568 1569 1569 1571 1571 1572 1573 1573 1574 1575 1575 1576 1576 1576 1577 1577 1578 1578 1579 1579 1580 1580 1581 1582 1582
1552 1553 1553 1554 1555 1555 1554 1556 1559 1560 1560 1561 1561 1562 1562 1563 1564 1564 1566 1567 1568 1569 1570 1570 1571 1571 1572 1573 1573 1574 1574 1575 1575 1575 1576 1577 1577 1578 1578 1579 1580 1581
1549 1549 1551 1553 1553 1552 1553 1555 1557 1558 1558 1558 1558 1558 1559 1560 1560 1560 1563 1565 1566 1566 1567 1567 1568 1569 1569 1570 1571 1571 1572 1572 1573 1573 1574 1574 1575 1575 1576 1577 1578 1579
1545 1547 1550 1553 1552 1550 1551 1552 1553 1555 1555 1554 1555 1555 1556 1556 1556 1558 1562 1563 1563 1563 1563 1564 1565 1566 1567 1568 1568 1568 1569 1569 1570 1571 1571 1572 1572 1573 1574 1575 1576 1577
1544 1547 1551 1552 1550 1549 1549 1550 1550 1551 1551 1551 1552 1552 1553 1554 1554 1556 1559 1560 1560 1559 1559 1560 1562 1563 1564 1565 1565 1566 1566 1567 1567 1568 1568 1569 1570 1571 1572 1572 1573 1574